Probability
0 0 0 0 0 0 0 0 0 0 0 0 0 0 0 0 0 0 0 0 0 0 0 0 0 0 0 0 0 0 0 0 0 0 0 0 0 0 0 0 0 0 0 0 0 0 0 0 0
0 0 0 0 0 0 0 0 0 0 0 0 0 0 0 0 0 0 0 0 0 0 0 0 0 0 0 0 0 0 0 0 0 0 0 0 0 0 0 0 0 0 0 0 0 0 0 0 0
0 0 0 0 0 0 0 0 0 0 0 0 0 0 0 0 0 0 0 0 0 0 0 0 0 0 0 0 0 0 0 0 0 0 0 0 0 0 0 0 0 0 0 0 0 0 0 0 0
0 0 0 0 0 0 0 0 0 0 0 0 0 0 0 0 0 0 0 0 0 0 0 0 0 0 0 0 0 0 0 0 0 0 0 0 0 0 0 0 0 0 0 0 0 0 0 0 0
0 0 0 0 0 0 0 0 0 0 0 0 0 0 0 0 0 0 0 0 0 0 0 0 0 0 0 0 0 0 0 0 0 0 0 0 0 0 0 0 0 0 0 0 0 0 0 0 0
0 0 0 0 0 0 0 0 0 0 0 0 0 0 0 0 0 0 0 0 0 0 0 0 0 0 0 0 0 0 0 0 0 0 0 0 0 0 0 0 0 0 0 0 0 0 0 0 0
0 0 0 0 0 0 0 0 0 0 0 0 0 0 0 0 0 0 0 0 0 0 0 0 0 0 0 0 0 0 0 0 0 0 0 0 0 0 0 0 0 0 0 0 0 0 0 0 0
0 0 0 0 0 0 0 0 0 0 0 0 0 0 0 0 0 0 0 0 0 0 0 0 0 0 0 0 0 0 0 0 0 0 0 0 0 0 0 0 0 0 0 0 0 0 0 0 0
0 0 0 0 0 0 0 0 0 0 0 0 0 0 0 0 0 0 0 0 0 0 0 0 0 0 0 0 0 0 0 0 0 0 0 0 0 0 0 0 0 0 0 0 0 0 0 0 0
0 0 0 0 0 0 0 0 0 0 0 0 0 0 0 0 0 0 0 0 0 0 0 0 0 0 0 0 0 0 0 0 0 0 0 0 0 0 0 0 0 0 0 0 0 0 0 0 0
0 0 0 0 0 0 0 0 0 0 0 0 0 0 0 0 0 0 0 0 0 0 0 0 0 0 0 0 0 0 0 0 0 0 0 0 0 0 0 0 0 0 0 0 0 0 0 0 0
0 0 0 0 0 0 0 0 0 0 0 0 0 0 0 0 0 0 0 0 0 0 0 0 0 0 0 0 0 0 0 0 0 0 0 0 0 0 0 0 0 0 0 0 0 0 0 0 0
0 0 0 0 0 0 0 0 0 0 0 0 0 0 0 0 0 0 0 0 0 0 0 0 0 0 0 0 0 0 0 0 0 0 0 0 0 0 0 0 0 0 0 0 0 0 0 0 0
0 0 0 0 0 0 0 0 0 0 0 0 0 0 0 0 0 0 0 0 0 0 0 0 0 0 0 0 0 0 0 0 0 0 0 0 0 0 0 0 0 0 0 0 0 0 0 0 0
0 0 0 0 0 0 0 0 0 0 0 0 0 0 0 0 0 0 0 0 0 0 0 0 0 0 0 0 0 0 0 0 0 0 0 0 0 0 0 0 0 0 0 0 0 0 0 0 0
0 0 0 0 0 0 0 0 0 0 0 0 0 0 0 0 0 0 0 0 0 0 0 0 0 0 0 0 0 0 0 0 0 0 0 0 0 0 0 0 0 0 0 0 0 0 0 0 0
0 0 0 0 0 0 0 0 0 0 0 0 0 0 0 0 0 0 0 0 0 0 0 0 0 0 0 0 0 0 0 0 0 0 0 0 0 0 0 0 0 0 0 0 0 0 0 0 0
0 0 0 0 0 0 0 0 0 0 0 0 0 0 0 0 0 0 0 0 0 0 0 0 0 0 0 0 0 0 0 0 0 0 0 0 0 0 0 0 0 0 0 0 0 0 0 0 0
0 0 0 0 0 0 0 0 0 0 0 0 0 0 0 0 0 0 0 0 0 0 0 0 0 0 0 0 0 0 0 0 0 0 0 0 0 0 0 0 0 0 0 0 0 0 0 0 0
0 0 0 0 0 0 0 0 0 0 0 0 0 0 0 0 0 0 0 0 0 0 0 0 0 0 0 0 0 0 0 0 0 0 0 0 0 0 0 0 0 0 0 0 0 0 0 0 0
0 0 0 0 0 0 0 0 0 0 0 0 0 0 0 0 0 0 0 0 0 0 0 0 0 0 0 0 0 0 0 0 0 0 0 0 0 0 0 0 0 0 0 0 0 0 0 0 0
0 0 0 0 0 0 0 0 0 0 0 0 0 0 0 0 0 0 0 0 0 0 0 0 0 0 0 0 0 0 0 0 0 0 0 0 0 0 0 0 0 0 0 0 0 0 0 0 0
0 0 0 0 0 0 0 0 0 0 0 0 0 0 0 0 0 0 0 0 0 0 0 0 0 0 0 0 0 0 0 0 0 0 0 0 0 0 0 0 0 0 0 0 0 0 0 0 0
0 0 0 0 0 0 0 0 0 0 0 0 0 0 0 0 0 0 0 0 0 0 0 0 0 0 0 0 0 0 0 0 0 0 0 0 0 0 0 0 0 0 0 0 0 0 0 0 0
0 0 0 0 0 0 0 0 0 0 0 0 0 0 0 0 0 0 0 0 0 0 0 0 0 0 0 0 0 0 0 0 0 0 0 0 0 0 0 0 0 0 0 0 0 0 0 0 0
0 0 0 0 0 0 0 0 0 0 0 0 0 0 0 0 0 0 0 0 0 0 0 0 0 0 0 0 0 0 0 0 0 0 0 0 0 0 0 0 0 0 0 0 0 0 0 0 0
0 0 0 0 0 0 0 0 0 0 0 0 0 0 0 0 0 0 0 0 0 0 0 0 0 0 0 0 0 0 0 0 0 0 0 0 0 0 0 0 0 0 0 0 0 0 0 0 0
0 0 0 0 0 0 0 0 0 0 0 0 0 0 0 0 0 0 0 0 0 0 0 0 0 0 0 0 0 0 0 0 0 0 0 0 0 0 0 0 0 0 0 0 0 0 0 0 0
0 0 0 0 0 0 0 0 0 0 0 0 0 0 0 0 0 0 0 0 0 0 0 0 0 0 0 0 0 0 0 0 0 0 0 0 0 0 0 0 0 0 0 0 0 0 0 0 0
0 0 0 0 0 0 0 0 0 0 0 0 0 0 0 0 0 0 0 0 0 0 0 0 0 0 0 0 0 0 0 0 0 0 0 0 0 0 0 0 0 0 0 0 0 0 0 0 0
Wind_Speed
8 5 2 5 7 7 1 2 2 1 1 1 1 1 2 2 2 2 2 5 7 10 13 15 15 15 14 13 13 13 12 12 11 10 9 8 7 6 6 6 8 11 10 9 8 8 8 8 7
3 3 5 6 7 4 1 2 1 1 3 2 0 0 1 1 2 3 2 4 8 12 12 13 14 15 15 15 14 14 13 13 12 10 9 8 8 7 6 7 9 10 9 8 7 7 7 6 6
5 3 5 5 4 5 3 2 2 2 2 2 1 0 1 2 4 5 5 4 8 9 10 12 15 15 15 15 15 15 14 13 12 12 11 10 9 7 8 9 10 9 8 7 7 6 5 5 5
4 5 6 6 1 4 5 5 3 1 1 1 1 1 2 1 4 6 5 6 9 8 8 11 17 17 16 15 15 15 14 13 13 12 12 12 11 10 10 10 9 8 7 6 6 6 5 4 5
5 5 6 4 3 2 2 3 2 3 3 2 1 0 3 3 2 2 4 6 8 7 7 9 15 16 16 16 16 15 14 13 12 12 13 13 12 11 10 10 9 8 6 5 5 5 4 4 4
5 5 5 1 4 1 2 1 3 3 3 3 1 1 2 1 1 2 4 5 5 7 7 8 14 14 14 15 16 16 15 14 13 13 13 13 13 12 11 10 10 8 7 7 6 5 4 4 4
5 4 3 2 2 1 2 0 3 2 2 2 1 1 3 3 3 4 4 4 4 5 6 6 9 11 13 14 14 14 14 14 13 12 12 13 13 11 10 9 10 9 8 7 7 6 5 4 4
5 4 1 2 1 1 3 2 2 1 2 2 2 1 3 4 2 2 2 2 2 4 5 7 7 7 8 9 13 13 13 12 12 11 11 13 13 12 10 9 9 10 9 9 8 7 6 4 3
5 5 1 1 1 1 3 4 5 4 2 4 2 1 2 1 4 2 1 2 2 3 4 6 7 7 7 6 8 10 11 12 12 10 11 11 7 7 7 9 10 11 10 10 10 8 7 5 3
5 3 5 2 1 1 2 1 4 4 7 5 5 6 3 1 2 3 3 5 5 6 6 6 8 9 8 7 5 5 5 6 6 5 7 6 5 5 6 8 10 10 10 11 11 10 7 4 1
3 5 4 2 2 1 3 4 2 1 5 6 5 7 6 2 3 3 4 4 6 6 5 5 6 7 8 6 5 4 3 3 4 5 6 5 5 4 4 3 4 5 6 5 6 6 3 2 1
3 5 4 4 3 2 2 3 3 3 8 4 3 4 5 9 9 9 8 8 8 6 6 6 5 5 6 6 5 5 4 4 4 4 6 5 4 4 4 3 3 3 2 3 3 3 3 2 3
4 4 4 5 6 4 3 3 3 8 8 4 7 12 12 10 9 7 7 7 8 9 9 7 4 5 5 5 4 5 5 5 5 5 6 6 5 5 4 3 3 3 3 3 3 3 3 3 3
2 2 5 7 6 4 5 3 2 9 1 7 11 11 10 11 10 11 12 13 13 12 11 9 5 4 4 4 4 4 4 5 5 6 8 8 6 6 6 5 4 4 3 3 3 4 3 2 2
1 4 8 6 3 3 3 2 6 9 3 6 8 8 10 10 11 11 11 11 11 11 11 11 8 3 1 3 3 2 3 3 4 5 7 8 7 7 7 6 6 5 4 4 3 2 1 1 2
1 2 5 6 1 2 6 5 8 5 3 6 7 6 8 9 9 8 10 9 10 11 11 12 10 9 5 3 3 2 1 1 2 3 4 6 6 6 6 5 6 6 6 5 4 3 2 2 2
1 2 5 6 1 2 4 6 9 3 5 6 6 6 6 7 9 9 9 9 10 10 10 11 12 12 9 8 7 6 5 5 3 2 0 2 4 5 5 5 4 6 5 5 5 3 3 3 2
6 5 5 5 3 3 5 8 10 6 4 7 6 6 6 8 9 8 9 9 9 9 10 12 13 13 9 7 7 7 9 8 7 7 6 5 2 2 3 3 4 4 4 4 4 3 3 2 3
5 5 5 7 5 5 8 9 11 7 2 6 6 6 6 6 5 7 9 9 10 12 13 14 14 13 9 6 5 5 6 6 7 8 11 10 7 5 3 2 3 3 4 5 6 3 3 2 2
4 5 6 7 4 4 6 8 7 4 1 5 8 6 5 5 6 8 9 10 12 13 13 14 14 13 11 6 4 3 4 5 5 7 10 12 11 8 5 4 2 0 1 2 4 3 3 2 3
7 7 7 7 5 3 2 6 5 2 5 8 8 6 5 5 5 6 9 10 11 14 13 12 13 14 13 11 6 5 6 5 7 9 9 11 12 12 10 7 4 2 1 2 3 4 5 4 4
6 8 8 5 2 4 1 5 7 3 4 4 5 5 5 5 5 6 7 9 11 11 10 12 13 14 13 12 11 12 9 7 6 5 6 9 12 13 12 10 8 5 3 2 2 3 3 3 4
7 2 2 1 2 2 2 5 8 2 5 6 5 5 5 4 5 6 6 7 8 9 9 10 12 14 13 13 12 11 10 7 5 6 10 10 10 11 12 11 9 8 5 5 4 3 4 4 5
4 5 6 5 4 4 6 7 9 4 6 7 7 6 6 5 5 5 5 6 7 8 8 9 11 12 11 12 12 12 12 10 11 11 10 8 7 9 13 11 9 8 7 6 5 4 4 4 6
4 5 2 3 1 8 2 4 9 3 2 9 12 9 6 5 5 4 5 6 6 7 8 8 10 11 10 10 11 10 10 10 11 9 9 9 7 8 11 10 9 8 7 7 6 5 5 5 5
6 9 8 7 6 6 3 8 5 4 4 10 10 8 7 6 5 5 5 4 5 6 6 7 8 7 7 8 7 7 7 6 6 7 7 7 6 6 8 9 8 8 8 8 7 5 5 4 5
6 5 5 5 2 3 7 5 0 2 5 7 8 7 7 7 7 7 6 6 5 5 5 5 5 5 5 5 5 5 6 6 6 5 5 4 5 6 8 8 8 8 8 8 7 5 6 6 5
4 7 5 5 6 7 6 5 5 8 8 8 9 8 8 8 8 8 7 6 5 5 4 4 4 4 3 4 4 3 4 5 5 4 5 5 5 5 6 7 7 8 8 8 7 6 7 7 6
4 4 5 5 5 7 5 8 3 8 12 13 11 10 11 12 12 9 7 6 6 5 5 4 4 3 2 3 3 4 4 4 4 4 5 5 5 6 7 7 8 8 8 7 7 8 8 9 9
6 7 8 7 7 6 5 8 1 3 8 10 11 13 13 12 9 7 7 6 6 6 5 5 4 3 2 2 2 2 3 3 4 4 5 5 6 6 7 7 8 9 9 8 8 9 9 9 10
Wind_Direction
325 327 63 54 54 52 47 278 182 144 170 203 195 158 159 197 192 216 238 165 168 155 169 172 174 174 171 166 162 160 160 158 157 156 155 152 149 147 143 134 130 121 113 108 103 98 95 91 84
336 358 48 55 79 86 294 283 174 210 198 160 83 108 81 207 215 160 186 179 157 157 166 173 176 175 174 170 168 167 167 166 165 166 168 166 161 157 156 149 137 126 118 114 108 101 95 88 79
335 43 73 69 102 158 178 227 221 285 227 150 107 185 219 195 188 189 214 157 140 154 163 172 173 177 178 176 174 173 174 174 174 175 175 171 163 155 149 144 135 127 122 119 116 109 97 82 70
43 39 52 67 95 206 180 204 211 80 353 314 141 358 315 354 191 196 179 147 141 160 165 173 174 177 179 179 180 180 181 182 183 182 179 174 164 155 149 143 136 129 126 128 127 118 102 81 67
60 67 55 32 293 251 192 193 99 44 359 316 300 350 323 354 31 150 159 152 151 167 171 175 177 180 181 182 183 184 187 190 191 190 187 181 169 162 158 154 149 146 148 152 143 127 109 88 72
52 62 77 3 304 283 258 242 85 62 11 338 303 333 325 306 161 201 180 167 159 166 176 176 181 182 184 186 187 187 189 191 194 197 195 187 173 172 172 171 169 169 174 173 160 144 125 101 78
92 90 138 241 282 258 247 232 112 98 353 297 188 330 307 263 231 203 192 173 166 168 170 181 186 188 188 188 190 191 192 193 195 199 199 183 171 175 177 178 178 180 185 181 166 156 145 126 93
113 95 58 322 309 333 327 350 47 17 273 263 161 157 269 251 182 166 185 171 174 176 177 182 188 192 195 196 196 194 195 196 198 202 198 177 170 170 173 176 180 183 187 182 169 164 161 142 111
76 77 187 237 60 324 342 356 333 320 324 317 301 259 283 150 141 157 187 309 278 230 208 188 190 193 194 198 204 203 202 201 199 203 194 174 167 164 170 179 182 183 184 179 173 173 164 141 121
78 140 223 215 180 241 292 287 303 353 327 304 311 312 334 145 170 208 241 259 262 253 236 211 197 194 192 197 196 199 202 205 200 187 179 169 159 164 171 187 187 184 180 179 178 175 152 132 91
144 197 241 254 210 225 302 316 349 11 288 265 280 306 330 360 360 343 325 313 295 285 282 247 217 200 193 196 191 189 189 189 191 183 170 162 160 162 167 170 185 185 175 172 172 155 139 148 164
195 237 240 279 316 313 281 297 322 233 241 267 326 332 10 33 30 20 8 356 343 337 322 298 257 221 205 196 193 188 188 190 191 180 172 167 167 169 169 174 178 172 161 160 144 141 160 182 199
215 257 295 285 293 276 262 261 274 269 265 336 49 56 49 42 28 13 5 1 360 358 344 325 283 237 214 197 192 188 192 194 190 175 180 180 172 172 170 175 177 175 161 160 158 163 178 195 196
220 271 287 277 276 257 241 267 230 267 313 60 64 61 51 40 24 17 12 7 1 354 344 336 319 263 217 200 194 187 186 186 182 184 187 187 179 171 173 173 176 177 173 167 167 175 186 207 212
338 332 316 292 254 242 152 275 232 247 42 65 74 73 59 44 31 22 7 1 353 350 347 350 348 348 208 196 189 168 169 173 184 189 188 188 183 175 174 176 178 178 165 155 151 162 161 214 238
44 21 299 295 293 162 141 244 261 256 74 79 89 77 63 47 31 19 9 3 357 357 359 1 8 18 38 79 96 84 101 157 185 183 186 187 182 172 168 174 182 171 159 157 161 161 172 223 247
351 228 243 290 264 172 176 235 273 305 96 98 103 86 68 50 33 17 10 7 4 3 5 13 19 23 32 52 64 61 50 35 21 22 334 194 174 168 168 176 172 162 162 164 165 161 166 192 222
217 213 231 250 260 186 217 245 272 301 99 117 114 92 72 56 31 12 9 12 13 13 19 23 24 23 27 43 54 56 51 42 35 28 16 16 49 124 140 143 145 147 151 161 170 167 166 168 172
181 194 235 254 247 201 228 246 263 282 112 127 121 101 84 65 33 18 13 14 25 28 30 27 27 19 22 29 36 45 46 37 39 35 31 29 30 37 53 76 128 153 174 186 181 153 170 170 132
230 240 253 273 271 215 237 252 261 319 17 136 131 112 93 72 38 27 24 26 31 33 30 32 29 24 22 22 30 53 66 46 39 35 32 27 26 27 32 37 36 158 184 173 175 166 162 180 164
224 220 230 246 301 316 295 295 270 54 64 75 86 91 84 75 50 30 30 32 36 36 31 33 32 31 26 24 31 37 42 38 30 25 25 23 24 23 21 23 26 15 326 237 217 201 186 202 207
239 225 216 229 233 283 326 280 271 190 117 102 99 94 86 68 50 40 36 39 39 34 31 36 37 38 32 32 43 53 55 51 29 20 25 27 31 28 22 18 15 12 357 314 270 234 231 214 220
221 210 168 165 184 288 294 257 272 179 186 178 153 131 111 87 66 51 44 46 43 37 37 38 43 43 38 40 44 52 54 49 38 35 34 30 26 26 22 20 18 13 3 345 322 290 251 234 233
147 76 52 49 73 266 223 210 271 229 214 164 156 144 130 109 85 66 53 51 47 41 41 41 48 45 39 43 45 50 51 46 44 37 33 28 23 21 19 16 16 13 9 357 340 318 292 269 256
122 105 33 325 301 247 235 215 251 326 307 158 153 148 142 133 120 97 74 62 57 52 48 47 52 48 39 44 46 46 47 48 46 36 30 25 20 15 9 11 9 8 2 358 354 344 324 301 282
180 158 174 209 227 266 282 234 265 2 62 113 130 143 150 150 143 133 124 109 92 78 66 59 57 52 43 45 45 43 46 48 45 39 33 26 13 2 358 1 2 2 2 1 356 349 336 320 301
158 194 176 149 150 262 260 266 15 82 93 121 143 157 168 169 169 166 158 144 128 112 100 90 81 68 55 53 55 48 46 50 45 35 30 20 3 355 353 351 351 349 351 353 352 345 332 323 304
169 152 121 156 194 234 262 249 229 176 185 182 182 182 186 189 191 186 174 162 151 141 130 118 108 98 79 62 53 51 40 39 34 26 15 3 349 344 339 339 337 335 335 338 339 331 325 322 309
158 170 175 179 184 188 236 254 230 187 186 189 192 192 195 200 200 190 178 168 158 151 148 146 139 120 95 73 57 44 29 23 17 8 354 344 336 335 334 330 327 326 323 323 321 315 314 313 309
196 195 174 189 224 208 213 255 283 177 172 175 189 201 208 208 194 178 171 165 165 167 166 166 168 164 162 142 87 46 20 7 356 341 331 326 322 320 318 317 317 317 318 315 311 307 304 299 298